Location: Aranbee
(34.0885°N, 118.2342°W)
Time: 15:37:50
(UTC+00:00)

Vanguard 1 Rocket - All Passes

Search period start: 24 November 2020 00:00
Search period end: 04 December 2020 00:00
Orbit: 656 x 4221 km, 34.3° (Epoch: 23 November)

Date Brightness Start Highest point End Pass type
(mag) Time Alt. Az. Time Alt. Az. Time Alt. Az.
24 Nov - 05:54:56 10° S 06:10:04 19° SE 06:24:45 10° E visible
24 Nov - 08:16:13 10° SSW 08:40:41 51° SE 08:59:15 10° ENE visible
24 Nov - 10:46:59 10° WSW 11:12:14 81° SSE 11:26:36 10° E visible
24 Nov - 13:22:29 10° W 13:42:18 90° SSE 13:51:59 10° E visible
24 Nov - 15:56:49 10° WNW 16:09:08 52° SSW 16:15:40 10° SE daylight
25 Nov - 07:04:17 10° SSW 07:26:15 38° SE 07:45:37 10° E visible
25 Nov - 09:31:45 10° SW 09:57:49 71° SSE 10:14:53 10° ENE visible
25 Nov - 12:05:53 10° W 12:29:06 89° N 12:41:05 10° E visible
25 Nov - 14:41:24 10° WNW 14:57:42 74° SSW 15:05:42 10° ESE daylight
25 Nov - 17:15:12 10° W 17:22:20 22° SW 17:27:09 10° S daylight
26 Nov - 05:54:19 10° S 06:12:14 26° SE 06:29:57 10° E visible
26 Nov - 08:17:51 10° SW 08:43:05 59° SSE 09:02:31 10° ENE visible
26 Nov - 10:49:30 10° WSW 11:15:07 86° SSE 11:29:48 10° E visible
26 Nov - 13:25:16 10° W 13:45:23 86° S 13:55:15 10° ESE visible
26 Nov - 15:59:45 10° WNW 16:11:51 42° SW 16:18:28 10° SSE daylight
27 Nov - 04:48:23 10° SSE 04:58:43 14° SE 05:09:30 10° ESE visible
27 Nov - 07:05:26 10° SSW 07:28:27 46° SE 07:49:08 10° ENE visible
27 Nov - 09:34:01 10° WSW 10:00:28 77° SSE 10:18:02 10° ENE visible
27 Nov - 12:08:39 10° W 12:32:08 89° N 12:44:21 10° E visible
27 Nov - 14:44:10 10° WNW 15:00:36 65° SSW 15:08:47 10° SE daylight
27 Nov - 17:19:14 10° W 17:24:43 16° SW 17:28:49 10° SSW daylight
28 Nov - 05:54:43 10° S 06:14:16 33° SE 06:34:12 10° E visible
28 Nov - 08:19:48 10° SW 08:45:29 66° SSE 09:05:39 10° ENE visible
28 Nov - 10:52:11 10° WSW 11:18:01 89° S 11:33:00 10° E visible
28 Nov - 13:28:01 10° W 13:48:23 81° SSW 13:58:27 10° ESE visible
28 Nov - 16:02:50 10° W 16:14:23 34° SW 16:21:03 10° SSE daylight
29 Nov - 04:46:29 10° SSE 05:00:45 20° SE 05:16:18 10° E visible
29 Nov - 07:07:01 10° SW 07:30:36 53° SE 07:52:24 10° ENE visible
29 Nov - 09:36:29 10° WSW 10:03:11 83° SSE 10:21:10 10° E visible
29 Nov - 12:11:26 10° W 12:35:10 89° S 12:47:35 10° E visible
29 Nov - 14:46:57 10° WNW 15:03:20 55° SSW 15:11:43 10° SE daylight
29 Nov - 17:24:55 10° WSW 17:27:00 11° WSW 17:28:51 10° SW daylight
30 Nov - 05:55:45 10° SSW 06:16:14 40° SE 06:37:53 10° ENE visible
30 Nov - 08:22:01 10° SW 08:47:57 73° SSE 09:08:44 10° ENE visible
30 Nov - 10:54:56 10° W 11:20:58 89° N 11:36:13 10° E visible
30 Nov - 13:30:43 10° WNW 13:51:17 74° SSW 14:01:34 10° ESE visible
30 Nov - 16:06:09 10° W 16:16:45 27° SW 16:23:19 10° S daylight
01 Dec - 04:46:22 10° S 05:02:38 26° SE 05:21:15 10° E visible
01 Dec - 07:08:55 10° SW 07:32:47 61° SSE 07:55:31 10° ENE visible
01 Dec - 09:39:08 10° WSW 10:05:58 87° SSE 10:24:18 10° E visible
01 Dec - 12:14:12 10° W 12:38:08 86° SSW 12:50:48 10° ESE visible
01 Dec - 14:49:46 10° WNW 15:05:53 46° SW 15:14:27 10° SSE daylight
02 Dec - 03:41:01 10° SSE 03:49:49 14° SE 03:59:38 10° E visible
02 Dec - 05:57:15 10° SSW 06:18:12 47° SE 06:41:13 10° ENE visible
02 Dec - 08:24:28 10° WSW 08:50:29 79° SSE 09:11:47 10° ENE visible
02 Dec - 10:57:45 10° W 11:23:55 89° N 11:39:25 10° E visible
02 Dec - 13:33:25 10° WNW 13:54:02 66° SSW 14:04:34 10° SE visible
02 Dec - 16:09:54 10° W 16:18:58 20° SW 16:25:07 10° S daylight
03 Dec - 04:47:08 10° S 05:04:28 33° SE 05:25:17 10° E visible
03 Dec - 07:11:06 10° SW 07:35:03 68° SSE 07:58:32 10° ENE visible
03 Dec - 09:41:54 10° W 10:08:48 90° S 10:27:27 10° E visible
03 Dec - 12:16:56 10° W 12:41:01 81° SSW 12:53:56 10° ESE visible
03 Dec - 14:52:43 10° WNW 15:08:15 38° SW 15:16:58 10° SSE daylight
